Regional Weather Roundup
Issued by NWS Albany, NY

Home | Current Version | Previous Version | Graphics & Text | Print | Product List | Glossary Off
Versions: 1 2 3 4 5 6 7 8 9 10 11 12 13 14 15 16 17 18 19 20 21 22 23 24 25 26 27 28 29 30 31 32 33 34 35 36 37 38 39 40 41 42 43 44 45 46 47 48 49 50

896
ASUS41 KALY 251410
RWRALY

NEW YORK STATE HOURLY WEATHER ROUNDUP
NATIONAL WEATHER SERVICE ALBANY NY
1000 AM EDT MON JUL 25 2016

NOTE: "FAIR" INDICATES FEW OR NO CLOUDS BELOW 12,000 FEET WITH NO
SIGNIFICANT WEATHER AND/OR NO OBSTRUCTIONS TO VISIBILITY.

NYZ032-033-038>043-046>054-057>066-NYZ062>081-082-084-251500-
EAST


CITY           SKY/WX    TMP DP  RH WIND       PRES   REMARKS
ALBANY         CLOUDY    79  64  60 S6        29.90F
GLENS FALLS    MOSUNNY   76  64  66 S5        29.89F
POUGHKEEPSIE   SUNNY     87  68  52 SW10      29.90F HX  90
NEWBURGH       MOSUNNY   84  72  65 W7        29.93F
MONTGOMERY     SUNNY     85  70  60 SW10      29.92S
WHITE PLAINS   CLOUDY    81  71  71 S7        29.93F
ISLIP          CLOUDY    80  69  69 SW16      29.94F
NEW YORK CITY  PTSUNNY   83  72  69 S13       29.92F
CENTRAL PARK   MOSUNNY   82  70  66 CALM      29.95F
$$

NYZ005>009-017-018-044>046-055-056-251500-
CENTRAL


CITY           SKY/WX    TMP DP  RH WIND       PRES   REMARKS
FULTON         LGT RAIN  72  66  81 SW7       29.91R
SYRACUSE       TSTM      71  66  84 W3        29.90R
ROME           CLOUDY    74  66  76 E5        29.90F
ELMIRA         CLOUDY    80  65  59 CALM      29.92F
BINGHAMTON     PTSUNNY   80  65  59 SW8       29.95F
MONTICELLO     SUNNY     79  66  65 W6        29.99S
$$

NYZ026>034-041>043-087-251500-
NORTH


CITY           SKY/WX    TMP DP  RH WIND       PRES   REMARKS
WATERTOWN      LGT RAIN  70  65  84 S9        29.83F
FORT DRUM      NOT AVBL
MASSENA        PTSUNNY   69  63  81 SE5       29.85F
SARANAC LAKE   PTSUNNY   73  59  61 W6        29.93S
PLATTSBURGH    PTSUNNY   72  64  76 SE5       29.87F
$$

NYZ001>004-010>016-019>021-085-251500-
WEST


CITY           SKY/WX    TMP DP  RH WIND       PRES   REMARKS
NIAGARA FALLS  TSTM      73  69  87 S9        29.87S
BUFFALO        LGT RAIN  71  68  90 S12       29.90F
DUNKIRK        TSTM      73  69  87 SW10G22   29.93R FOG
JAMESTOWN      CLOUDY    73  70  88 S8        29.98S
WELLSVILLE     HVY RAIN  74  69  85 W13       30.03R
ROCHESTER      TSTM      72  70  93 W7        29.92S
PENN YAN       LGT RAIN  72  68  87 W8        29.94R FOG
$$

             KEY
       WCI = WIND CHILL INDEX
       VSB = VISIBILITY
       HX  = HEAT INDEX
$$




USA.gov is the U.S. government's official web portal to all federal, state and local government web resources and services.